Tracking 20093 objects as of 16-Dec-2019
HD Live streaming from Space Station
objects crossing your sky now

FENGYUN 1C DEB

Track FENGYUN 1C DEB now!
10-day predictions


NORAD ID: 30548
Int'l Code: 1999-025AKN
Perigee: 800.6 km
Apogee: 920.8 km
Inclination: 99.7 °
Period: 102.0 minutes
Semi major axis: 7231 km
RCS: 0.0075 m2 (small)
Launch date: May 10, 1999
Source: People's Republic of China (PRC)
Launch site: Taiyaun Space Center, China (TSC)

Note: This is SATELLITE DEBRIS
aabbcc
Your satellite tracking list
Your tracking list is empty




NASA's NSSDC Master Catalog

Two Line Element Set (TLE):
1 30548U 99025AKN 19348.30749050 +.00000508 +00000-0 +29768-3 0  9996
2 30548 099.7206 019.2571 0083101 295.7502 121.9987 14.11703688660001
Source of the keplerian elements: AFSPC